Tracking 29892 objects as of 21-Nov-2024
HD Live streaming from Space Station
objects crossing your sky now

CZ-6A DEB

Track CZ-6A DEB now!
10-day predictions


NORAD ID: 54303
Int'l Code: 2022-151AW
Perigee: 835.8 km
Apogee: 904.2 km
Inclination: 98.8 °
Period: 102.2 minutes
Semi major axis: 7240 km
RCS: Unknown
Launch date: November 11, 2022
Source: People's Republic of China (PRC)
Launch site: Taiyaun Space Center, China (TSC)

Note: This is SATELLITE DEBRIS
Your satellite tracking list
Your tracking list is empty




NASA's NSSDC Master Catalog

Two Line Element Set (TLE):
1 54303U 22151AW  24325.87645997  .00000162  00000-0  11738-3 0  9999
2 54303  98.8423 326.5553 0047171 163.8150 196.4540 14.08981449103612
Source of the keplerian elements: AFSPC